BEL2HL EGLL-EBBR

Flight info

Callsign BEL2HL
Flight time 0h 43m
Altitude 23000
Route DET Q70 KOK
Aircraft A320/M-SDE3FGHIRWY/LB1

Departure

Time 2026-05-06 14:15
Airport London Heathrow Airport (EGLL)

Arrival

Time 2026-05-06 14:58
Airport Brussels Airport (EBBR)
Time Latitude Longitude Altitude Speed Heading
2026-05-06 13:58 51.46835 -0.44980 90 ft 0 kts
2026-05-06 14:02 51.46832 -0.44980 90 ft 1 kts
2026-05-06 14:02 51.46815 -0.44980 90 ft 3 kts 357°
2026-05-06 14:03 51.46795 -0.44977 89 ft 3 kts 352°
2026-05-06 14:03 51.46775 -0.44971 88 ft 3 kts 339°
2026-05-06 14:03 51.46758 -0.44957 86 ft 3 kts 303°
2026-05-06 14:03 51.46753 -0.44942 87 ft 0 kts 270°
2026-05-06 14:05 51.46753 -0.44959 89 ft 3 kts 270°
2026-05-06 14:05 51.46753 -0.45007 85 ft 6 kts 270°
2026-05-06 14:06 51.46730 -0.45068 88 ft 8 kts 206°
2026-05-06 14:06 51.46677 -0.45089 87 ft 8 kts 219°
2026-05-06 14:06 51.46665 -0.45184 86 ft 11 kts 269°
2026-05-06 14:06 51.46664 -0.45326 85 ft 15 kts 270°
2026-05-06 14:07 51.46665 -0.45511 83 ft 18 kts 271°
2026-05-06 14:07 51.46662 -0.45704 82 ft 17 kts 270°
2026-05-06 14:07 51.46663 -0.45878 82 ft 14 kts 269°
2026-05-06 14:07 51.46660 -0.46034 83 ft 15 kts 269°
2026-05-06 14:08 51.46659 -0.46191 87 ft 13 kts 270°
2026-05-06 14:08 51.46660 -0.46316 89 ft 11 kts 270°
2026-05-06 14:08 51.46660 -0.46446 91 ft 12 kts 269°
2026-05-06 14:08 51.46660 -0.46590 90 ft 14 kts 270°
2026-05-06 14:09 51.46659 -0.46756 88 ft 16 kts 270°
2026-05-06 14:09 51.46657 -0.46954 88 ft 20 kts 270°
2026-05-06 14:09 51.46657 -0.47202 87 ft 25 kts 271°
2026-05-06 14:09 51.46655 -0.47501 81 ft 29 kts 266°
2026-05-06 14:10 51.46664 -0.47823 83 ft 28 kts 274°
2026-05-06 14:10 51.46653 -0.48077 85 ft 18 kts 268°
2026-05-06 14:10 51.46625 -0.48207 90 ft 8 kts 203°
2026-05-06 14:10 51.46604 -0.48214 86 ft 0 kts 187°
2026-05-06 14:11 51.46603 -0.48214 86 ft 0 kts 187°
2026-05-06 14:11 51.46602 -0.48214 88 ft 0 kts 187°
2026-05-06 14:13 51.46585 -0.48216 86 ft 4 kts 180°
2026-05-06 14:13 51.46544 -0.48215 86 ft 7 kts 179°
2026-05-06 14:14 51.46499 -0.48209 86 ft 5 kts 158°
2026-05-06 14:14 51.46480 -0.48158 87 ft 6 kts 98°
2026-05-06 14:14 51.46483 -0.47929 83 ft 51 kts 90°
2026-05-06 14:14 51.46484 -0.46979 86 ft 116 kts 89°
2026-05-06 14:15 51.46500 -0.45406 118 ft 161 kts 86°
2026-05-06 14:15 51.46493 -0.43611 772 ft 161 kts 85°
2026-05-06 14:15 51.46453 -0.41804 1558 ft 165 kts 99°
2026-05-06 14:15 51.45907 -0.40102 2124 ft 184 kts 127°
2026-05-06 14:16 51.45035 -0.38428 2504 ft 207 kts 126°
2026-05-06 14:16 51.44149 -0.36463 2948 ft 225 kts 115°
2026-05-06 14:16 51.43594 -0.34007 3303 ft 246 kts 99°
2026-05-06 14:16 51.43203 -0.31228 3915 ft 261 kts 99°
2026-05-06 14:17 51.42789 -0.28365 4778 ft 266 kts 100°
2026-05-06 14:17 51.42378 -0.25491 5613 ft 271 kts 100°
2026-05-06 14:17 51.41964 -0.22519 5925 ft 273 kts 100°
2026-05-06 14:17 51.41557 -0.19553 6000 ft 272 kts 100°
2026-05-06 14:18 51.41152 -0.16594 6001 ft 271 kts 100°
2026-05-06 14:18 51.40748 -0.13637 6008 ft 272 kts 100°
2026-05-06 14:18 51.40345 -0.10685 6007 ft 272 kts 100°
2026-05-06 14:18 51.39939 -0.07727 6011 ft 271 kts 100°
2026-05-06 14:19 51.39531 -0.04776 6013 ft 272 kts 100°
2026-05-06 14:19 51.39121 -0.01824 6006 ft 271 kts 100°
2026-05-06 14:19 51.38716 0.01084 6011 ft 271 kts 101°
2026-05-06 14:19 51.38306 0.04025 6006 ft 271 kts 100°
2026-05-06 14:20 51.37897 0.06971 6009 ft 271 kts 101°
2026-05-06 14:20 51.37487 0.09914 6006 ft 271 kts 101°
2026-05-06 14:20 51.37074 0.12863 6012 ft 271 kts 101°
2026-05-06 14:20 51.36659 0.15804 6008 ft 271 kts 101°
2026-05-06 14:21 51.36245 0.18749 6008 ft 271 kts 101°
2026-05-06 14:21 51.35832 0.21690 6007 ft 270 kts 101°
2026-05-06 14:21 51.35419 0.24631 6004 ft 270 kts 101°
2026-05-06 14:21 51.35006 0.27560 6002 ft 270 kts 101°
2026-05-06 14:22 51.34592 0.30493 6003 ft 271 kts 101°
2026-05-06 14:22 51.34175 0.33429 6025 ft 271 kts 101°
2026-05-06 14:22 51.33755 0.36369 6021 ft 270 kts 101°
2026-05-06 14:22 51.33334 0.39298 6022 ft 270 kts 101°
2026-05-06 14:23 51.32912 0.42224 6028 ft 270 kts 101°
2026-05-06 14:23 51.32493 0.45146 6026 ft 270 kts 101°
2026-05-06 14:23 51.32075 0.48076 6025 ft 270 kts 101°
2026-05-06 14:23 51.31655 0.51011 6132 ft 273 kts 101°
2026-05-06 14:24 51.31238 0.53940 7015 ft 273 kts 101°
2026-05-06 14:24 51.31009 0.55526 9204 ft 0 kts 101°
2026-05-06 14:24 51.30645 0.58333 11531 ft 291 kts 100°
2026-05-06 14:24 51.30365 0.61656 11769 ft 314 kts 92°
2026-05-06 14:25 51.30219 0.65268 11968 ft 337 kts 92°
2026-05-06 14:25 51.30074 0.69119 12277 ft 354 kts 92°
2026-05-06 14:25 51.29930 0.73091 12892 ft 361 kts 92°
2026-05-06 14:25 51.29785 0.77121 13578 ft 365 kts 92°
2026-05-06 14:26 51.29635 0.81200 14213 ft 370 kts 92°
2026-05-06 14:26 51.29481 0.85326 14835 ft 373 kts 93°
2026-05-06 14:26 51.29324 0.89488 15441 ft 377 kts 93°
2026-05-06 14:26 51.29164 0.93685 16064 ft 380 kts 93°
2026-05-06 14:27 51.29003 0.97916 16676 ft 384 kts 93°
2026-05-06 14:27 51.28839 1.02185 17282 ft 387 kts 93°
2026-05-06 14:27 51.28673 1.06498 17887 ft 391 kts 94°
2026-05-06 14:27 51.28504 1.10849 18460 ft 394 kts 94°
2026-05-06 14:28 51.28328 1.15236 18994 ft 397 kts 94°
2026-05-06 14:28 51.28152 1.19593 19524 ft 400 kts 94°
2026-05-06 14:28 51.27971 1.24051 19870 ft 403 kts 94°
2026-05-06 14:28 51.27791 1.28514 19955 ft 403 kts 94°
2026-05-06 14:29 51.27608 1.32982 19971 ft 403 kts 94°
2026-05-06 14:29 51.27424 1.37445 19968 ft 403 kts 94°
2026-05-06 14:29 51.27238 1.41912 19967 ft 402 kts 94°
2026-05-06 14:29 51.27048 1.46370 19962 ft 402 kts 94°
2026-05-06 14:30 51.26857 1.50832 19958 ft 402 kts 94°
2026-05-06 14:30 51.26667 1.55287 19959 ft 402 kts 94°
2026-05-06 14:30 51.26478 1.59752 19955 ft 403 kts 94°
2026-05-06 14:30 51.26287 1.64204 19968 ft 403 kts 94°
2026-05-06 14:31 51.26090 1.68662 19956 ft 403 kts 94°
2026-05-06 14:31 51.25889 1.73119 19960 ft 402 kts 95°
2026-05-06 14:31 51.25687 1.77582 19955 ft 402 kts 95°
2026-05-06 14:31 51.25484 1.82037 19963 ft 402 kts 95°
2026-05-06 14:32 51.25278 1.86486 19965 ft 402 kts 95°
2026-05-06 14:32 51.25070 1.90934 19958 ft 402 kts 95°
2026-05-06 14:32 51.24860 1.95384 19958 ft 402 kts 95°
2026-05-06 14:32 51.24651 1.99835 19959 ft 402 kts 95°
2026-05-06 14:33 51.24443 2.04298 19971 ft 402 kts 95°
2026-05-06 14:33 51.24238 2.08744 19956 ft 402 kts 94°
2026-05-06 14:33 51.24032 2.13134 19955 ft 402 kts 95°
2026-05-06 14:33 51.23819 2.17584 19956 ft 402 kts 95°
2026-05-06 14:34 51.23599 2.22034 19952 ft 402 kts 95°
2026-05-06 14:34 51.23377 2.26484 19957 ft 402 kts 95°
2026-05-06 14:34 51.23156 2.30928 19954 ft 402 kts 95°
2026-05-06 14:34 51.22842 2.35351 19951 ft 401 kts 101°
2026-05-06 14:35 51.22081 2.39622 19954 ft 400 kts 112°
2026-05-06 14:35 51.20863 2.43588 19950 ft 399 kts 122°
2026-05-06 14:35 51.19226 2.47145 19952 ft 398 kts 132°
2026-05-06 14:35 51.17411 2.50474 19950 ft 397 kts 131°
2026-05-06 14:36 51.15603 2.53805 19953 ft 397 kts 131°
2026-05-06 14:36 51.13802 2.57135 19949 ft 397 kts 131°
2026-05-06 14:36 51.12608 2.59346 19948 ft 397 kts 131°
2026-05-06 14:36 51.10944 2.62855 19949 ft 397 kts 122°
2026-05-06 14:37 51.09658 2.66736 19951 ft 397 kts 112°
2026-05-06 14:37 51.08798 2.70914 19940 ft 397 kts 102°
2026-05-06 14:37 51.08269 2.75224 19943 ft 397 kts 101°
2026-05-06 14:37 51.07754 2.79542 19947 ft 397 kts 101°
2026-05-06 14:38 51.07239 2.83849 19954 ft 397 kts 101°
2026-05-06 14:38 51.06719 2.88158 19952 ft 397 kts 101°
2026-05-06 14:38 51.06195 2.92474 19942 ft 397 kts 101°
2026-05-06 14:38 51.05670 2.96784 19949 ft 397 kts 101°
2026-05-06 14:39 51.04970 3.02501 19940 ft 398 kts 101°
2026-05-06 14:39 51.04619 3.05363 19947 ft 398 kts 101°
2026-05-06 14:39 51.04088 3.09678 19937 ft 398 kts 101°
2026-05-06 14:39 51.03555 3.13990 19932 ft 398 kts 101°
2026-05-06 14:40 51.03022 3.18309 19936 ft 398 kts 101°
2026-05-06 14:40 51.02490 3.22621 19935 ft 398 kts 101°
2026-05-06 14:40 51.01957 3.26946 19921 ft 398 kts 101°
2026-05-06 14:40 51.01421 3.31260 19927 ft 398 kts 101°
2026-05-06 14:41 51.00883 3.35573 19913 ft 396 kts 101°
2026-05-06 14:41 51.00352 3.39797 19711 ft 386 kts 101°
2026-05-06 14:41 50.99825 3.43953 19315 ft 382 kts 101°
2026-05-06 14:41 50.99302 3.48068 18886 ft 379 kts 101°
2026-05-06 14:42 50.98783 3.52146 18442 ft 376 kts 101°
2026-05-06 14:42 50.98265 3.56202 17991 ft 373 kts 102°
2026-05-06 14:42 50.97751 3.60235 17498 ft 371 kts 101°
2026-05-06 14:42 50.97240 3.64240 17007 ft 370 kts 101°
2026-05-06 14:43 50.96729 3.68223 16516 ft 368 kts 101°
2026-05-06 14:43 50.96289 3.71647 16119 ft 366 kts 101°
2026-05-06 14:43 50.95786 3.75544 15688 ft 364 kts 101°
2026-05-06 14:43 50.95279 3.79470 15254 ft 362 kts 101°
2026-05-06 14:44 50.94777 3.83347 15024 ft 353 kts 101°
2026-05-06 14:44 50.94286 3.87105 14895 ft 342 kts 101°
2026-05-06 14:44 50.93808 3.90747 14767 ft 332 kts 101°
2026-05-06 14:45 50.92997 3.97746 14522 ft 313 kts 91°
2026-05-06 14:45 50.93192 4.01125 14386 ft 303 kts 75°
2026-05-06 14:45 50.93838 4.04200 14275 ft 293 kts 68°
2026-05-06 14:45 50.94532 4.07197 14139 ft 286 kts 69°
2026-05-06 14:46 50.95208 4.10162 13990 ft 279 kts 68°
2026-05-06 14:46 50.95853 4.12999 13748 ft 277 kts 68°
2026-05-06 14:46 50.96508 4.15868 13460 ft 275 kts 68°
2026-05-06 14:46 50.97157 4.18720 13158 ft 274 kts 68°
2026-05-06 14:47 50.97802 4.21557 12861 ft 273 kts 68°
2026-05-06 14:47 50.98447 4.24384 12572 ft 271 kts 69°
2026-05-06 14:47 50.99085 4.27193 12286 ft 269 kts 68°
2026-05-06 14:47 50.99717 4.29989 11994 ft 268 kts 68°
2026-05-06 14:48 51.00345 4.32761 11706 ft 266 kts 68°
2026-05-06 14:48 51.00969 4.35519 11412 ft 264 kts 68°
2026-05-06 14:48 51.01588 4.38251 11130 ft 262 kts 68°
2026-05-06 14:48 51.02204 4.40972 10846 ft 261 kts 69°
2026-05-06 14:49 51.02814 4.43677 10555 ft 259 kts 68°
2026-05-06 14:49 51.03412 4.46328 10270 ft 257 kts 69°
2026-05-06 14:49 51.04012 4.49000 9973 ft 256 kts 69°
2026-05-06 14:49 51.04608 4.51653 9666 ft 254 kts 69°
2026-05-06 14:50 51.05202 4.54299 9315 ft 253 kts 69°
2026-05-06 14:50 51.05790 4.56926 8977 ft 251 kts 69°
2026-05-06 14:50 51.06371 4.59539 8642 ft 250 kts 68°
2026-05-06 14:50 51.06949 4.62138 8312 ft 248 kts 68°
2026-05-06 14:51 51.07526 4.64719 7959 ft 247 kts 68°
2026-05-06 14:51 51.08102 4.67289 7603 ft 246 kts 68°
2026-05-06 14:51 51.08671 4.69847 7291 ft 244 kts 70°
2026-05-06 14:51 51.08866 4.72467 7002 ft 245 kts 95°
2026-05-06 14:52 51.08317 4.75010 6550 ft 246 kts 122°
2026-05-06 14:52 51.07097 4.76883 6055 ft 246 kts 151°
2026-05-06 14:52 51.05480 4.77672 5525 ft 244 kts 175°
2026-05-06 14:52 51.03782 4.77902 5002 ft 245 kts 176°
2026-05-06 14:53 51.02073 4.78142 4470 ft 246 kts 175°
2026-05-06 14:53 51.00369 4.78387 3998 ft 243 kts 175°
2026-05-06 14:53 50.98691 4.78448 3564 ft 240 kts 189°
2026-05-06 14:53 50.97170 4.77701 3482 ft 219 kts 210°
2026-05-06 14:54 50.95947 4.76348 3396 ft 210 kts 227°
2026-05-06 14:54 50.95063 4.74572 3156 ft 201 kts 244°
2026-05-06 14:54 50.94548 4.72634 2911 ft 196 kts 254°
2026-05-06 14:54 50.94089 4.70628 2645 ft 191 kts 254°
2026-05-06 14:55 50.93640 4.68667 2400 ft 188 kts 254°
2026-05-06 14:55 50.93200 4.66742 2141 ft 181 kts 254°
2026-05-06 14:55 50.92788 4.64946 1906 ft 166 kts 253°
2026-05-06 14:55 50.92409 4.63294 1685 ft 153 kts 255°
2026-05-06 14:56 50.92049 4.61724 1480 ft 149 kts 255°
2026-05-06 14:56 50.91698 4.60191 1268 ft 147 kts 253°
2026-05-06 14:56 50.91351 4.58676 1066 ft 146 kts 254°
2026-05-06 14:56 50.91005 4.57174 852 ft 145 kts 254°
2026-05-06 14:57 50.90658 4.55660 658 ft 146 kts 253°
2026-05-06 14:57 50.90313 4.54158 450 ft 145 kts 254°
2026-05-06 14:57 50.89964 4.52657 261 ft 145 kts 250°
2026-05-06 14:57 50.89653 4.51270 173 ft 117 kts 250°
2026-05-06 14:58 50.89429 4.50302 176 ft 73 kts 249°
2026-05-06 14:58 50.89274 4.49639 177 ft 44 kts 250°
2026-05-06 14:58 50.89226 4.49379 176 ft 13 kts 269°
2026-05-06 14:58 50.89260 4.49250 173 ft 14 kts 307°
2026-05-06 14:59 50.89337 4.49106 167 ft 20 kts 310°
2026-05-06 14:59 50.89434 4.49014 160 ft 9 kts
2026-05-06 14:59 50.89507 4.49044 158 ft 13 kts 14°
2026-05-06 14:59 50.89607 4.49095 154 ft 13 kts 30°
2026-05-06 15:00 50.89705 4.49170 148 ft 19 kts 16°
2026-05-06 15:00 50.89839 4.49224 141 ft 21 kts 14°
2026-05-06 15:00 50.89960 4.49272 134 ft 21 kts 14°
2026-05-06 15:00 50.90083 4.49323 127 ft 16 kts 15°
2026-05-06 15:01 50.90200 4.49371 128 ft 19 kts 14°
2026-05-06 15:01 50.90317 4.49392 125 ft 14 kts 315°
2026-05-06 15:01 50.90309 4.49259 124 ft 12 kts 245°
2026-05-06 15:01 50.90277 4.49150 125 ft 10 kts 245°
2026-05-06 15:02 50.90250 4.49056 126 ft 9 kts 245°
2026-05-06 15:02 50.90225 4.48974 127 ft 8 kts 245°
2026-05-06 15:02 50.90205 4.48903 124 ft 7 kts 246°
2026-05-06 15:02 50.90178 4.48869 126 ft 3 kts 194°
2026-05-06 15:03 50.90165 4.48871 128 ft 2 kts 172°
2026-05-06 15:03 50.90146 4.48882 126 ft 1 kts 156°
2026-05-06 15:03 50.90135 4.48891 130 ft 4 kts 155°
2026-05-06 15:03 50.90127 4.48896 127 ft 0 kts 155°